Weather History for KHOE - August, 2013

Change the Weather History Date:

Saturday, August 17, 2013

  Actual Average Record
Temperature  
Mean Temperature 78 °F -  
Max Temperature 86 °F 91 °F 97 °F (1957)
Min Temperature 71 °F 69 °F 62 °F (1993)
Cooling Degree Days 14    
Growing Degree Days 28 (Base 50)    
Moisture  
Dew Point 74 °F    
Average Humidity 93    
Maximum Humidity 100    
Minimum Humidity 70    
Precipitation  
Precipitation 0.00 in - - ()
Sea Level Pressure  
Sea Level Pressure 30.07 in    
Wind  
Wind Speed 2 mph (SE)    
Max Wind Speed 9 mph    
Max Gust Speed -    
Visibility 10 miles    
Events Rain , Thunderstorm    
Averages and records for this station are not official NWS values.
T = Trace of Precipitation, MM = Missing Value Source: NWS Daily Summary

Daily Weather History Graph

Daily Weather History Graph

Search for Another Location

Airport or City:

Trip Planner

Search our weather history database for the weather conditions in past years. The results will help you decide how hot, cold, wet, or windy it might be!

Date:

Astronomy

Aug. 17, 2013 Rise Set
Actual Time 6:58 AM EDT 8:11 PM EDT
Civil Twilight 6:33 AM EDT 8:36 PM EDT
Nautical Twilight 6:02 AM EDT 9:06 PM EDT
Astronomical Twilight 5:31 AM EDT 9:37 PM EDT
Moon 5:19 PM EDT (8/17) 3:07 AM EDT (8/17)
Length of Visible Light 14h 03m
Length of Day
13h 12m
Waxing Gibbous, 84% of the Moon is Illuminated
Aug 17
Waxing Gibbous
Aug 20
Full
Aug 28
Last Quarter
Sep 5
New
Sep 12
First Quarter

Hourly Weather History & Observations

Time (EDT) Temp. Heat Index Dew Point Humidity Pressure Visibility Wind Dir Wind Speed Gust Speed Precip Events Conditions
12:15 AM 73.4 °F - 73.4 °F 100% 30.05 in 10.0 mi East 3.5 mph - N/A Rain Light Rain
12:35 AM 73.4 °F - 73.4 °F 100% 30.05 in 10.0 mi Calm Calm - N/A   Light Drizzle
12:55 AM 73.4 °F - 73.4 °F 100% 30.05 in 10.0 mi SSE 4.6 mph - N/A   Overcast
1:15 AM 73.4 °F - 73.4 °F 100% 30.05 in 10.0 mi SSE 3.5 mph - N/A   Overcast
1:35 AM 73.4 °F - 73.4 °F 100% 30.05 in 10.0 mi Calm Calm - N/A   Mostly Cloudy
1:55 AM 73.4 °F - 73.4 °F 100% 30.04 in 10.0 mi Calm Calm - N/A   Light Drizzle
2:15 AM 73.4 °F - 73.4 °F 100% 30.04 in 10.0 mi Calm Calm - N/A   Overcast
2:35 AM 73.4 °F - 73.4 °F 100% 30.04 in 10.0 mi Calm Calm - N/A   Overcast
2:55 AM 73.4 °F - 73.4 °F 100% 30.04 in 10.0 mi Calm Calm - N/A Rain Light Rain
3:15 AM 73.4 °F - 73.4 °F 100% 30.04 in 10.0 mi Calm Calm - N/A   Overcast
3:35 AM 73.4 °F - 73.4 °F 100% 30.03 in 10.0 mi Calm Calm - N/A   Overcast
3:55 AM 73.4 °F - 73.4 °F 100% 30.04 in 10.0 mi South 3.5 mph - N/A   Overcast
4:15 AM 73.4 °F - 73.4 °F 100% 30.04 in 10.0 mi South 3.5 mph - N/A   Overcast
4:35 AM 73.4 °F - 73.4 °F 100% 30.03 in 10.0 mi Calm Calm - N/A   Overcast
4:55 AM 73.4 °F - 73.4 °F 100% 30.03 in 10.0 mi South 3.5 mph - N/A   Overcast
5:15 AM 73.4 °F - 73.4 °F 100% 30.03 in 10.0 mi Calm Calm - N/A Rain Rain
5:35 AM 73.4 °F - 73.4 °F 100% 30.03 in 10.0 mi SSE 3.5 mph - N/A   Overcast
5:55 AM 73.4 °F - 73.4 °F 100% 30.04 in 10.0 mi SSE 3.5 mph - N/A   Overcast
6:15 AM 73.4 °F - 73.4 °F 100% 30.05 in 10.0 mi Calm Calm - N/A   Overcast
6:35 AM 73.4 °F - 73.4 °F 100% 30.05 in 10.0 mi Calm Calm - N/A   Mostly Cloudy
6:55 AM 73.4 °F - 73.4 °F 100% 30.06 in 10.0 mi Calm Calm - N/A   Scattered Clouds
7:15 AM 73.4 °F - 73.4 °F 100% 30.08 in 10.0 mi Calm Calm - N/A   Mostly Cloudy
7:35 AM 73.4 °F - 73.4 °F 100% 30.07 in 10.0 mi Calm Calm - N/A   Scattered Clouds
7:55 AM 73.4 °F - 73.4 °F 100% 30.07 in 10.0 mi Calm Calm - N/A   Clear
8:15 AM 73.4 °F - 73.4 °F 100% 30.08 in 10.0 mi Calm Calm - N/A Rain Light Rain
8:35 AM 73.4 °F - 73.4 °F 100% 30.09 in 5.0 mi Calm Calm - N/A Rain Light Rain
8:55 AM 73.4 °F - 73.4 °F 100% 30.10 in 5.0 mi SW 3.5 mph - N/A Rain Rain
9:15 AM 73.4 °F - 73.4 °F 100% 30.10 in 10.0 mi Calm Calm - N/A Rain Light Rain
9:35 AM 73.4 °F - 73.4 °F 100% 30.09 in 7.0 mi Calm Calm - N/A Rain Rain
9:55 AM 73.4 °F - 73.4 °F 100% 30.08 in 7.0 mi Calm Calm - N/A Rain Light Rain
10:15 AM 75.2 °F - 75.2 °F 100% 30.08 in 10.0 mi Calm Calm - N/A Rain Light Rain
10:35 AM 75.2 °F - 75.2 °F 100% 30.08 in 10.0 mi Calm Calm - N/A   Light Drizzle
10:55 AM 77.0 °F - 75.2 °F 94% 30.09 in 10.0 mi Calm Calm - N/A Rain Rain
11:15 AM 77.0 °F - 75.2 °F 94% 30.09 in 10.0 mi ESE 3.5 mph - N/A Rain Light Rain
11:35 AM 77.0 °F - 75.2 °F 94% 30.10 in 10.0 mi ESE 3.5 mph - N/A   Light Drizzle
11:55 AM 78.8 °F - 77.0 °F 94% 30.10 in 10.0 mi SE 3.5 mph - N/A   Scattered Clouds
12:15 PM 78.8 °F - 75.2 °F 89% 30.10 in 10.0 mi SE 4.6 mph - N/A   Scattered Clouds
12:35 PM 80.6 °F 86.2 °F 75.2 °F 84% 30.09 in 10.0 mi SSE 3.5 mph - N/A   Scattered Clouds
12:55 PM 80.6 °F 86.2 °F 75.2 °F 84% 30.09 in 10.0 mi SE 5.8 mph - N/A   Scattered Clouds
1:15 PM 80.6 °F 86.2 °F 75.2 °F 84% 30.08 in 10.0 mi SE 4.6 mph - N/A   Scattered Clouds
1:35 PM 80.6 °F 86.2 °F 75.2 °F 84% 30.08 in 10.0 mi ESE 5.8 mph - N/A   Scattered Clouds
1:55 PM 82.4 °F 89.5 °F 75.2 °F 79% 30.08 in 10.0 mi Calm Calm - N/A   Clear
2:15 PM 82.4 °F 89.5 °F 75.2 °F 79% 30.07 in 10.0 mi SSE 5.8 mph - N/A   Clear
2:35 PM 82.4 °F 88.2 °F 73.4 °F 74% 30.07 in 10.0 mi SE 3.5 mph - N/A   Scattered Clouds
2:55 PM 84.2 °F 90.9 °F 73.4 °F 70% 30.07 in 10.0 mi SE 3.5 mph - N/A   Clear
3:15 PM 84.2 °F 92.3 °F 75.2 °F 74% 30.06 in 10.0 mi ESE 4.6 mph - N/A   Clear
3:35 PM 84.2 °F 92.3 °F 75.2 °F 74% 30.05 in 10.0 mi SE 3.5 mph - N/A   Clear
3:55 PM 84.2 °F 92.3 °F 75.2 °F 74% 30.05 in 10.0 mi Calm Calm - N/A   Clear
4:15 PM 86.0 °F 95.1 °F 75.2 °F 70% 30.04 in 10.0 mi ESE 3.5 mph - N/A   Clear
4:35 PM 86.0 °F 96.9 °F 77.0 °F 74% 30.03 in 10.0 mi East 4.6 mph - N/A   Scattered Clouds
4:55 PM 86.0 °F 96.9 °F 77.0 °F 74% 30.03 in 10.0 mi East 4.6 mph - N/A   Clear
5:15 PM 86.0 °F 96.9 °F 77.0 °F 74% 30.03 in 10.0 mi East 5.8 mph - N/A   Clear
5:35 PM 86.0 °F 95.1 °F 75.2 °F 70% 30.03 in 10.0 mi East 4.6 mph - N/A   Scattered Clouds
5:55 PM 86.0 °F 96.9 °F 77.0 °F 74% 30.04 in 10.0 mi Calm Calm - N/A   Scattered Clouds
6:15 PM 82.4 °F 90.9 °F 77.0 °F 84% 30.04 in 10.0 mi Calm Calm - N/A Thunderstorm Thunderstorm
6:35 PM 82.4 °F 92.4 °F 78.8 °F 89% 30.05 in 10.0 mi Calm Calm - N/A Rain , Thunderstorm Light Thunderstorms and Rain
7:55 PM 71.6 °F - 71.6 °F 100% 30.11 in 2.0 mi NW 8.1 mph - N/A Rain , Thunderstorm Light Thunderstorms and Rain
8:15 PM 71.6 °F - 71.6 °F 100% 30.12 in 3.0 mi Calm Calm - N/A Rain , Thunderstorm Light Thunderstorms and Rain
8:35 PM 71.6 °F - 71.6 °F 100% 30.10 in 10.0 mi Calm Calm - N/A Rain Light Rain
8:55 PM 71.6 °F - 71.6 °F 100% 30.11 in 10.0 mi East 4.6 mph - N/A   Scattered Clouds
9:15 PM 71.6 °F - 71.6 °F 100% 30.13 in 10.0 mi ESE 3.5 mph - N/A   Clear
9:35 PM 71.6 °F - 71.6 °F 100% 30.13 in 10.0 mi Calm Calm - N/A   Scattered Clouds
9:55 PM 71.6 °F - 71.6 °F 100% 30.13 in 10.0 mi Calm Calm - N/A Rain Light Rain
10:15 PM 71.6 °F - 71.6 °F 100% 30.14 in 10.0 mi SE 4.6 mph - N/A Rain Light Rain
10:35 PM 71.6 °F - 71.6 °F 100% 30.14 in 10.0 mi SE 4.6 mph - N/A   Mostly Cloudy
10:55 PM 71.6 °F - 71.6 °F 100% 30.13 in 10.0 mi SSE 4.6 mph - N/A   Scattered Clouds
11:15 PM 71.6 °F - 71.6 °F 100% 30.13 in 10.0 mi SSE 6.9 mph - N/A   Scattered Clouds
11:35 PM 71.6 °F - 71.6 °F 100% 30.14 in 10.0 mi SSE 9.2 mph - N/A   Clear
11:55 PM 71.6 °F - 71.6 °F 100% 30.13 in 10.0 mi SE 3.5 mph - N/A   Clear